Regional Weather Roundup
Issued by NWS

Home | Current Version | Previous Version | Graphics & Text | Print | Product List | Glossary On
Versions: 1 2 3 4 5 6 7 8 9 10 11 12 13 14 15 16 17 18 19 20 21 22 23 24 25 26 27 28 29 30 31 32 33 34 35 36 37 38 39 40 41 42 43 44 45 46 47 48 49 50
000
ASUS43 KMPX 270601
RWRMN
WEATHER ROUNDUP FOR MINNESOTA
NATIONAL WEATHER SERVICE TWIN CITIES/CHANHASSEN MN
1200 AM CST SAT DEC 27 2014


NOTE: "FAIR" INDICATES FEW OR NO CLOUDS BELOW 12,000 FEET WITH NO
SIGNIFICANT WEATHER AND/OR OBSTRUCTIONS TO VISIBILITY. N/A MEANS
CURRENT SKY AND/OR WEATHER CONDITIONS ARE NOT AVAILABLE.

MNZ060>063-068>070-270700-
   Twin Cities Metro

CITY           SKY/WX    TMP DP  RH WIND       PRES   REMARKS
TWIN CITIES    LGT SNOW  28  24  85 N15       30.03F WCI  16
6HR MIN TEMP:  28; 6HR MAX TEMP:  31; 6HR PCP:  0.05;

ST PAUL        CLOUDY    28  25  88 N6        30.04F WCI  22
CRYSTAL        LGT SNOW  28  24  85 N12       30.03F FOG     WCI  18
BLAINE         LGT SNOW  28  28 100 N9        30.04F WCI  20
LAKEVILLE      FLURRIES  27  25  93 N12       30.00F WCI  16
EDEN PRAIRIE   LGT SNOW  28  24  85 N10       30.01F FOG     WCI  19
6HR MIN TEMP:  28; 6HR MAX TEMP:  31; 6HR PCP:  0.03;

SOUTH ST PAUL  CLOUDY    30  27  88 N9        30.02F WCI  21
LAKE ELMO      CLOUDY    30  28  93 N8        30.03F WCI  23
$$
MNZ001>005-007-008-013>017-022>024-027-028-270700-
   Northwest Minnesota

CITY           SKY/WX    TMP DP  RH WIND       PRES   REMARKS
BEMIDJI        FLURRIES  17  11  80 W7        30.12F WCI   7
HALLOCK        CLOUDY     9   3  78 CALM      30.22S
ROSEAU         CLOUDY    12   7  79 NW3       30.17F
WARROAD        FLURRIES  12   7  79 W3        30.17S
THIEF RVR FALL CLOUDY    10   7  85 NW6       30.18F WCI   1
CROOKSTON      FLURRIES   9   7  92 N6        30.22F WCI  -1
FOSSTON        LGT SNOW  10   9  92 CALM      30.16F
DETROIT LAKES  FLURRIES  12  10  92 NW9       30.15S WCI   0
MOORHEAD       PTCLDY     9   7  92 NW10      30.21F WCI  -6
PARK RAPIDS    CLOUDY    20  15  81 N10       30.10F WCI   9
MAHNOMEN       FLURRIES  11   8  89 NW7       30.16S WCI   0
$$
MNZ006-009>011-018-025>026-270700-
   North Central Minnesota

CITY           SKY/WX    TMP DP  RH WIND       PRES   REMARKS
BAUDETTE       FLURRIES  13   8  81 CALM      30.15S
FLAG ISLAND    CLOUDY     9   5  85 W5        30.16S WCI   0
INTL FALLS     CLOUDY    16   9  74 NW6       30.13F WCI   7
6HR MIN TEMP:  16; 6HR MAX TEMP:  20; 6HR PCP: TRACE;

WASKISH        FLURRIES  18  10  73 CALM      30.14F
BIG FORK       FLURRIES  19  12  73 CALM      30.12F
LONGVILLE      CLOUDY    21  16  79 N3        30.10F
GRAND RAPIDS   CLOUDY    19  12  73 N7        30.09F WCI  10
CRANE LAKE     LGT SNOW  16  12  86 NW5       30.14F WCI   9
ORR            CLOUDY    18  10  73 NW5       30.09F WCI  11
COOK           CLOUDY    18  14  86 N5        30.10F WCI  11
WALKER         CLOUDY    19  13  76 NW3       30.12S
$$
MNZ012-019>021-037-270700-
   Northeast Minnesota

CITY           SKY/WX    TMP DP  RH WIND       PRES   REMARKS
DULUTH         CLOUDY    24  18  77 NW8       30.06F WCI  15
6HR MIN TEMP:  24; 6HR MAX TEMP:  28;

ELY            FLURRIES  18  16  93 CALM      30.08F
HIBBING        CLOUDY    21  14  74 N9        30.09F WCI  11
EVELETH        CLOUDY    23  18  80 N6        30.10S WCI  16
DULUTH HARBOR  CLOUDY    28  21  74 N6        30.11F WCI  22
TWO HARBORS    CLOUDY    28  19  69 N5        30.06F WCI  23
GRAND MARAIS     N/A     28  20  71 N10G18    30.09S WCI  19
G MARAIS ARPRT CLOUDY    19  16  86 N3        30.04S
$$
MNZ029>031-032-039>041-046>048-054>057-064-270700-
   West Central Minnesota

CITY           SKY/WX    TMP DP  RH WIND       PRES   REMARKS
FERGUS FALLS   PTCLDY    12   9  85 NW10      30.19F WCI  -1
WHEATON        FAIR      12   9  85 NW12      30.20S WCI  -2
MORRIS         CLOUDY    19  16  86 N17       30.12F WCI   4
ALEXANDRIA     CLOUDY    22  17  81 N13       30.10F WCI  10
ELBOW LAKE     CLOUDY    17  15  88 NW12      30.13F WCI   5
WADENA         CLOUDY    19  16  86 N9        30.10F WCI   9
GLENWOOD       CLOUDY    21  19  93 N10       30.09F WCI  10
APPLETON       CLOUDY    21  18  86 N20       30.13S WCI   6
BENSON         CLOUDY    23  18  80 N10       30.11S WCI  12
ORTONVILLE     CLOUDY    19  14  79 N17       30.14F WCI   4
MADISON        CLOUDY    25  19  80 N18       30.15R WCI  11
WILLMAR        CLOUDY    27  19  74 N10       30.10S WCI  17
$$
MNZ033>034-036-042>043-049>051-058-059-270700-
   Central Minnesota

CITY           SKY/WX    TMP DP  RH WIND       PRES   REMARKS
ST CLOUD       CLOUDY    27  18  69 N12       30.06F WCI  17
6HR MIN TEMP:  27; 6HR MAX TEMP:  31;

SAUK CENTRE    CLOUDY    22  16  78 N9        30.09F WCI  12
PAYNESVILLE    CLOUDY    21  18  87 NW9       30.09R WCI  11
AITKIN         CLOUDY    25  18  74 N7        30.09F WCI  17
PINE RIVER     CLOUDY    21  16  79 N6        30.13F WCI  14
BRAINERD       CLOUDY    21  15  78 N8        30.11F WCI  11
STAPLES        CLOUDY    21  16  79 NE6       30.10F WCI  14
LONG PRAIRIE   CLOUDY    21  18  86 N10       30.09F WCI  10
LITTLE FALLS   CLOUDY    23  18  80 N5        30.10F WCI  17
LITCHFIELD     CLOUDY    27  21  80 N10       30.07S WCI  17
BUFFALO        LGT SNOW  26  23  89 N7        30.06F WCI  18
MAPLE LAKE     CLOUDY    27  23  84 N8        30.07F WCI  19
$$
MNZ037-044-045-052-053-270700-
   East Central Minnesota

CITY           SKY/WX    TMP DP  RH WIND       PRES   REMARKS
PRINCETON      CLOUDY    27  21  80 N9        30.05F WCI  17
MORA           CLOUDY    27  19  74 VRB8      30.09F WCI  18
CAMBRIDGE      FLURRIES  28  19  69 N5        30.04F WCI  23
RUSH CITY      CLOUDY    27  22  83 N8        30.07F WCI  18
MOOSE LAKE     CLOUDY    25  19  80 N7        30.07F WCI  17
HINCKLEY       CLOUDY    28  21  74 N9        30.07F WCI  20
CLOQUET        CLOUDY    25  18  74 NW6       30.08F WCI  18
MCGREGOR       CLOUDY    23  19  86 N5        30.10F WCI  17
$$
MNZ071>073-080-081-089-090-097-098-270700-
   Southwest Minnesota

CITY           SKY/WX    TMP DP  RH WIND       PRES   REMARKS
MONTEVIDEO     CLOUDY    23  19  86 N12       30.13R WCI  12
GRANITE FALLS  CLOUDY    25  21  87 NW12      30.13R WCI  14
CANBY          CLOUDY    22  19  89 N13       30.15R WCI   9
MARSHALL       CLOUDY    21  18  86 N15       30.10S WCI   8
REDWOOD FALLS  LGT SNOW  25  23  92 N8        30.08S VSB 1   WCI  16
OLIVIA         LGT SNOW  27  23  86 N7        30.08S WCI  19
PIPESTONE      CLOUDY    21  19  93 N9        30.06F WCI  11
WINDOM         LGT SNOW  25  23  93 N16       30.03F WCI  12
WORTHINGTON    CLOUDY    23 -24  11 N16G24    30.03F WCI  10
JACKSON        LGT SNOW  27  25  93 VRB12     30.02F WCI  16
TRACY          LGT SNOW  24  23  95 N12       30.08S WCI  13
SLAYTON        LGT SNOW  22  20  93 N16       30.05F WCI   8
$$
MNZ065>067-074>077-082>085-091>093-270700-
   South Central Minnesota

CITY           SKY/WX    TMP DP  RH WIND       PRES   REMARKS
MANKATO        CLOUDY    28  23  80 N13       30.02R WCI  18
NEW ULM        LGT SNOW  25  25 100 N7        30.06R WCI  17
ST JAMES       LGT SNOW  27  27 100 NW12      30.06R WCI  16
FAIRMONT       CLOUDY    27  23  86 N15       30.00F WCI  15
GLENCOE        LGT SNOW  27  26  95 N10       30.04S WCI  17
FARIBAULT      LGT SNOW  28  27  93 N10       29.99F WCI  19
OWATONNA       LGT SNOW  28  27  93 N9G17     29.99R WCI  20
ALBERT LEA     LGT SNOW  30  28  93 NE10      29.97R WCI  21
$$
MNZ078>079-086>088-094>096-270700-
   Southeast Minnesota

CITY           SKY/WX    TMP DP  RH WIND       PRES   REMARKS
ROCHESTER      LGT SNOW  30  28  92 N9        29.96S FOG     WCI  22
6HR MIN TEMP:  30; 6HR MAX TEMP:  32; 6HR PCP:  0.17;

RED WING       LGT SNOW  30  28  93 NE6       29.98F WCI  24
STANTON        LGT SNOW  30  28  90 N15       29.98F WCI  19
DODGE CENTER   LGT SNOW  30  28  93 N12       29.96S WCI  21
WINONA         LGT SNOW  34  34 100 NW3       29.99F
AUSTIN         FLURRIES  30  28  93 N8        29.96S WCI  23
PRESTON        CLOUDY    30  30  98 N5        29.95F FOG     WCI  25
$$
ABBREVIATIONS USED IN REMARKS
   TC - TEMPERATURES IN CELSIUS
  WCI - WIND CHILL INDEX
   HX - HEAT INDEX
  VSB - VISIBILITY
$$



USA.gov is the U.S. government's official web portal to all federal, state and local government web resources and services.